Regional Weather Roundup
Issued by NWS Pendleton, OR

Home | Current Version | Previous Version | Text Only | Print | Product List | Glossary On
Versions: 1 2 3 4 5 6 7 8 9 10 11 12 13 14 15 16 17 18 19 20 21 22 23 24 25 26 27 28 29 30 31 32 33 34 35 36 37 38 39 40 41 42 43 44 45 46 47 48 49 50
835
ASUS46 KPDT 270510
RWRPDT
PENDLETON REGIONAL WEATHER ROUNDUP
NATIONAL WEATHER SERVICE PENDLETON OREGON
1000 PM PDT SAT MAY 26 2018

NOTE: FAIR INDICATES FEW OR NO CLOUDS BELOW 12,000 FEET WITH NO
SIGNIFICANT WEATHER AND/OR OBSTRUCTIONS TO VISIBILITY.

# INDICATES UNOFFICIAL STATION AND DATA

WAZ520-270610-
EAST SLOPES OF WASHINGTON CASCADES

CITY            SKY/WX      TMP DP  RH  WIND    PRES   REMARKS
#BULLFROG       N/A         54  41  61  SW3     N/A
#CLE ELUM HS    N/A         52  41  66  W7      30.09R
#EASTON DOT     N/A         49  41  74  N2      N/A
#ELK HTS DOT    N/A         54  53  96  W7      N/A
#GLENWOOD       N/A         52  43  71  CALM    30.08R
#NELSON 3SW     N/A         50  40  68  CALM    30.31R
#NILE           N/A         54  41  61  NW2     29.45R
#TROUT LAKE 1NE N/A         55  43  64  W6      30.10R
#TROUT LAKE 1E  N/A         54  41  61  CALM    30.14S
$$

WAZ521-270610-
SIMCOE HIGHLANDS

CITY            SKY/WX      TMP DP  RH  WIND    PRES   REMARKS
#BICKLETON HS   N/A         50  37  61  NW7     29.74R
#SATUS PASS DOT N/A         48  39  71  NW7     N/A
#CENTERVILLE 1SWN/A         53  43  69  W14     30.05R
#GOLDENDALE 1NE N/A         56  22  26  S2      N/A
#GOLDENDALE 4W  N/A         55  24  30  W5      30.13R
#GOODNOE HILLS  N/A         57  45  64  W15     30.00R
#LYLE 6NE       N/A         54  45  71  SW8     30.13R
#PITT 4SE       N/A         50  43  77  CALM    30.14R
$$

WAZ026-270610-
KITTITAS VALLEY

CITY            SKY/WX      TMP DP  RH  WIND    PRES   REMARKS
ELLENSBURG AP   PTCLDY      57  40  53  NW29G39 30.06R
#ELLENSBURG CWU N/A         56  40  55  N16     29.98R
#ELLENSBURG 3NE N/A         54  41  61  N14G26  28.14R
#ELLENSBURG 1E  N/A         57  39  51  NW2     30.09R
#KITTITAS 3S    N/A         56  41  57  W12     30.01R
#MANASTASH RDG  N/A         52  52  100 N16     N/A
#ROCKY CYN DOT  N/A         56  38  51  W26G37  N/A
#RYEGRASS DOT   N/A         51  35  54  CALM    N/A
#THORP 6N       N/A         62  47  58  CALM    29.88R
$$

WAZ027-270610-
YAKIMA VALLEY

CITY            SKY/WX      TMP DP  RH  WIND    PRES   REMARKS
YAKIMA AIRPORT  CLEAR       61  39  44  NW16G24 30.06R
#DONALD 2NE     N/A         62   5  10  SW13    28.89R
#GRANDVIEW      N/A         62  32  32  NW1     30.02R
#MABTON         N/A         62  41  46  SW1     30.03R
#MOXEE 2E       N/A         37  N/A N/A SW12    29.79S WCI 29
#NACHES 2SW     N/A         57  42  57  W15G29  30.05R
#OUTLOOK DOT    N/A         64  31  29  CALM    29.99R
#PARKER DOT     N/A         62  35  36  S16     30.03R
#TERRACE HTS    N/A         60  37  42  N7      29.98R
#TOPPENISH      N/A         63  38  39  CALM    29.93R
#I82 S UMTANUM RN/A         58  30  34  N3      N/A
#UNION GAP DOT  N/A         62  36  38  N10     30.07
#W YAKIMA       N/A         60  40  47  N6      30.01R
#WHITE SWAN 5E  N/A         63  40  43  CALM    30.02R
#WILEY CITY 3W  N/A         58  32  37  CALM    30.01S
#ZILLAH DOT     N/A         63  33  32  NW10    N/A
$$

WAZ028-270610-
LOWER COLUMBIA BASIN...WASHINGTON

CITY            SKY/WX      TMP DP  RH  WIND    PRES   REMARKS
PASCO           PTCLDY      63  46  54  N3      30.02R
PROSSER AWOS    N/A         61  37  41  W12     30.06R
RICHLAND AWOS   PTCLDY      63  38  39  NW6     30.02R
#BASIN CITY 5SW N/A         60  42  51  W2      29.98R
#BENTON CITY    N/A         64  38  38  W7      29.90R
#CONNELL 5N     N/A         56  43  62  NW2     29.99R
#CONNELL 5NW    N/A         58  45  62  W2      29.94R
#ELTOPIA 6NW    N/A         60  43  53  CALM    28.99R
#KAHLOTUS       N/A         63  45  52  W22G29  29.98R
#KENNEWICK 3S   N/A         61  46  58  S1      30.01R
#PROSSER DOT    N/A         63  36  36  SW6     30.03R
#SAGEMOOR 2W    N/A         62  42  48  W7      29.85R
#TOUCHET 2S     N/A         63  46  54  SW12    29.97R
#WEST PASCO     N/A         68  44  42  CALM    30.01R
$$

WAZ029-270610-
FOOTHILLS OF THE BLUES...WASHINGTON

CITY            SKY/WX      TMP DP  RH  WIND    PRES   REMARKS
WALLA WALLA AP  MOCLDY      63  45  52  S10     30.06R
#CLYDE 6NW      N/A         61  45  56  SW7     29.97R
#DELANEY DOT    N/A         61  45  56  E2      N/A
#LOWDEN 2SE     N/A         62  47  58  W2      30.00R
#PLEASANT VIEW 1N/A         56  46  69  S7      30.01R
#PRESCOTT       N/A         57  49  75  CALM    29.99R
#WHITMAN COLLEGEN/A         62  46  56  SE3     30.08R
#WAITSBURG 6SSE N/A         57  44  62  E3      29.88R
#WAITSBURG 8N   N/A          0  N/A N/A S3      29.82S
#WALLA WALLA 5E N/A         58  46  64  S7      N/A
#WHITMAN MISSIONN/A         62  47  58  CALM    30.03R
$$

WAZ030-270610-
BLUE MOUNTAINS...WASHINGTON

CITY            SKY/WX      TMP DP  RH  WIND    PRES   REMARKS
#DIXIE 5SE      N/A         46  40  79  SW7     30.01R
$$

ORZ009-041-WAZ024-270610-
COLUMBIA RIVER GORGE

CITY            SKY/WX      TMP DP  RH  WIND    PRES   REMARKS
HOOD RIVER AP   CLEAR       59  43  55  SW3     30.15R
THE DALLES AP   PTCLDY      63  42  46  W13G24  30.11R
#ARLINGTON AIRPON/A         58  45  62  W15     30.06R
#CELILO DOT     N/A         63  43  48  SW8     N/A
#LYLE           N/A         61  48  62  NW7     30.13R
#MARYHILL       N/A         58  43  57  N28G37  29.93R
#MURDOCK        N/A         62  47  58  NW16G24 30.06R
#RUFUS DOT      N/A         63  45  52  W23G32  N/A
#SMITHVILLE     N/A         61  46  58  N10     30.09R

$$

ORZ510-270610-
NORTH CENTRAL OREGON

CITY            SKY/WX      TMP DP  RH  WIND    PRES   REMARKS
#ANTELOPE       N/A         48  38  68  CALM    29.98R
#CHENOWITH 1W   N/A         54  42  64  W33G40  N/A
#COW CYN RST AREN/A         48  38  68  SW3     N/A
#DUFUR          N/A         47  40  76  CALM    30.07R
#DUFUR 9E       N/A         52  41  66  W7      30.16R
#GRASS VALLEY 1SN/A         51  40  66  W8      30.14R
#KENT DOT       N/A         49  33  54  W10     N/A
#SHANIKO 5WSW   N/A         48  37  65  SW5     N/A
#SHANIKO 4NW    N/A         48  36  63  W6      30.14R
#TYGH VALLEY 2NEN/A         54  41  61  N1      30.09R
#WAPANITIA AIRPON/A         52  41  66  W5      30.11R
#WASCO DOT      N/A         57  43  59  W8      N/A
#WASCO 5NE      N/A         53  43  69  SW6     30.06R
$$

ORZ511-270610-
CENTRAL OREGON

CITY            SKY/WX      TMP DP  RH  WIND    PRES   REMARKS
BEND AIRPORT    CLEAR       50  36  58  N6      30.17R
MADRAS AIRPORT  CLEAR       46  37  71  NW8     30.19R
PRINEVILLE AP   CLEAR       46  36  68  CALM    30.17R
REDMOND AIRPORT CLEAR       52  37  56  N5      30.17R
#ASHWOOD SCHOOL N/A         51  38  61  CALM    30.11R
#BEND 1SW       N/A         47  37  68  CALM    N/A
#BEND-AWBREY    N/A         48  38  68  E2      30.10R
#BEND-KIM LN    N/A         46  38  73  W1      30.07R
#CULVER         N/A         49  37  63  CALM    29.94R
#CULVER 8W      N/A         50  36  58  CALM    30.15R
#LAKE BILLY CHINN/A         53  N/A N/A SE3     30.20R
#POWELL BUTTE   N/A         48  37  65  W2      30.11R
#PRINEVILLE     N/A         51  39  63  CALM    30.18R
#PRINEVILLE 3N  N/A         49  39  68  N10     30.09R
#WARM SPRINGS   N/A         56  41  57  CALM    29.98R

$$


ORZ509-270610-
EAST SLOPES OF OREGON CASCADES

CITY            SKY/WX      TMP DP  RH  WIND    PRES   REMARKS
SISTERS AWOS    N/A         50  37  61  W10     30.12R
#CAMP SHERMAN   N/A         44  36  73  CALM    30.20R
#LA PINE 4NW    N/A         41  35  79  CALM    30.16R
#LAVA BUTTE DOT N/A         44  28  53  S7      N/A
#SISTERS ODOT   N/A         50  35  56  W5      N/A
#SISTERS 3N     N/A         47  33  58  CALM    30.17R
#SUNRIVER       N/A         46  38  73  CALM    30.11R
#TUMALO 3W      N/A         47  37  68  N3      29.99R
#WANOGA BUTTE D N/A         43  N/A N/A NE1     N/A

$$

ORZ044-270610-
LOWER COLUMBIA BASIN...OREGON

CITY            SKY/WX      TMP DP  RH  WIND    PRES   REMARKS
HERMISTON       PTCLDY      62  44  52  SW15G24 30.04R
#BOARDMAN SCHOOLN/A         61  45  56  S7      30.03R
#BOARDMAN 8SW   N/A         59  46  62  SW10    30.06R
#ECHO 8SW       N/A         60  42  51  W12     30.06R
#I-84 EX 198 DOTN/A         60  42  51  NE16    N/A
#IONE SCHOOL    N/A         59  41  51  SW7     30.08R
#UMATILLA       N/A         62  44  52  W13     29.94R
$$

ORZ507-270610-
NORTHERN FOOTHILLS OF THE BLUES

CITY            SKY/WX      TMP DP  RH  WIND    PRES   REMARKS
PENDLETON AIRPT PTCLDY      59  40  49  W23G29  30.05R
#ADAMS 3WNW     N/A         56  44  64  SE1     30.02R
#ATHENA         N/A         57  44  62  CALM    30.06R
#CAYUSE         N/A         59  44  57  SW6     30.03R
#HELIX SCHOOL   N/A         56  43  62  N5      30.03R
#HELIX 3N       N/A         55  43  64  SW10    30.08R
#HOLDMAN 6E     N/A         55  44  66  S6      29.83R
#M-F GROVE ELEM N/A         61  42  50  SW7     30.03R
#M-FREEWATER 5SEN/A         60  44  55  S6      30.06R
#PENDLETON DNTN N/A         63  37  38  SW3     N/A
#PDT AQUATIC CTRN/A         61  38  42  CALM    30.05R
#PDT SUNRIDGE   N/A         60  43  53  SE7     30.08R
#PENDLETON 6SE  N/A         57  43  59  SW2     30.00R
#PENDLETON 7NW  N/A         59  44  57  SW5     32.35S
#PILOT ROCK     N/A         57  40  53  CALM    30.10R
#TUTUILLA       N/A         55  41  59  CALM    30.10R
#UMAPINE 2E     N/A         61  46  58  CALM    30.01R

$$

ORZ508-270610-
SOUTHERN FOOTHILLS OF THE BLUES

CITY            SKY/WX      TMP DP  RH  WIND    PRES   REMARKS
#AJAX           N/A         54  35  48  CALM    30.26R
#FOSSIL SCHOOL  N/A         54  40  59  CALM    30.07
#HEPPNER EOC    N/A         54  40  59  CALM    30.01R
#HEPPNER 4NE    N/A         50  39  66  SW5     30.06R
#LEXINGTON 2SE  N/A         55  41  59  W1      30.05R
#OLEX 4N        N/A         57  43  59  SW13    30.07R
#RUGGS 5NE      N/A         51  37  59  W3      30.27R
#RUGGS 2SW      N/A         51  39  63  W9      30.08R

$$

ORZ502-503-270610-
BLUE MOUNTAINS

CITY            SKY/WX      TMP DP  RH  WIND    PRES   REMARKS
#BATTLE MTN DOT N/A         47  35  63  N1      N/A
#HARDMAN 10S    N/A         46  37  71  CALM    30.19R
#LADD CYN SMT   N/A         54  37  52  NW8     N/A
#LADD CREEK ODOTN/A         53  39  59  CALM    N/A
#N POWDER DOT   N/A         56  41  57  NW6     N/A
#PIKES PEAK     N/A         53  40  61  S15     27.99S
#SUMMERVILLE 5NWN/A         52  44  74  CALM    26.74R
#TOLLGATE       N/A         44  40  86  SW1     30.16R
#TROY SCHOOL    N/A         59  54  83  CALM    29.85R
#UKIAH          N/A         47  41  79  CALM    29.96R
$$

ORZ505-270610-
JOHN DAY BASIN

CITY            SKY/WX      TMP DP  RH  WIND    PRES   REMARKS
JOHN DAY        PTCLDY      55  45  69  NW6     30.11R
#ANTELOPE 9ESE  N/A         58  39  49  SW3     N/A
#DAYVILLE SCHOOLN/A         60  38  44  NW2     30.05R
#MITCHELL 8NW   N/A         49  36  61  CALM    30.10R
#MONUMENT HS    N/A         60  40  47  SW1     30.04R
#MT. VERNON 5SE N/A         53  40  61  CALM    30.06R
#SPRAY SCHOOL   N/A         58  N/A N/A SW1     N/A
$$

ORZ506-270610-
OCHOCO AND JOHN DAY HIGHLANDS

CITY            SKY/WX      TMP DP  RH  WIND    PRES   REMARKS
#HORSE RIDGE DO N/A         47  32  56  NW9     N/A
#KEYES SMT DOT  N/A         48  35  60  NW8     N/A
#PAULINA ODOT   N/A         54  38  55  NW6     N/A
#PINE MTN OBS   N/A         38  33  82  NW8     N/A
#PRAIRIE CITY   N/A         51  46  83  CALM    30.22R
#SENECA         N/A         51  N/A N/A CALM    N/A
#SENECA 9NW     N/A         47  40  76  CALM    30.00R
$$

ORZ049-270610-
GRANDE RONDE VALLEY

CITY            SKY/WX      TMP DP  RH  WIND    PRES   REMARKS
LA GRANDE       MOCLDY      54  45  71  N5      30.08
#COVE SCHOOL    N/A         56  47  72  CALM    30.07R
#COVE 6NW       N/A         53  47  80  CALM    30.01R
#ELGIN 3N       N/A         52  43  71  CALM    30.06R
#ELGIN 1E       N/A         53  45  74  CALM    N/A
#IMBLER SCHOOL  N/A         54  42  64  CALM    30.03R
#ISLAND CITY 4N N/A         54  48  80  CALM    30.22R
#LADD CYN DOT   N/A         58  43  57  CALM    N/A
#UNION 1S       N/A         57  46  67  CALM    30.01R
$$

ORZ050-270610-
WALLOWA COUNTY

CITY            SKY/WX      TMP DP  RH  WIND    PRES   REMARKS
#ENTERPRISE HS  N/A         54  51  90  CALM    29.91R
#IMNAHA 10S     N/A         57  52  83  CALM    30.05R
#JOSEPH         N/A         53  50  89  CALM    30.28S
#JOSEPH 3N      N/A         52  46  80  CALM    30.12R
#JOSEPH 3W      N/A         50  50  100 CALM    29.94R
#LOSTINE        N/A         55  50  83  CALM    29.82R
#LOSTINE 3SE    N/A         54  51  90  S1      30.16R
#MT HOWARD 8000 N/A         38  37  96  CALM    30.19R
#PROMISE 1S     N/A         50  48  93  CALM    30.11R
#WALLOWA LAKE   N/A         51  49  93  CALM    30.13R



$$



USA.gov is the U.S. government's official web portal to all federal, state and local government web resources and services.